�������l�o���
Date,Time,MP-1(��Sv/h),MP-2(��Sv/h),MP-3(��Sv/h),MP-4(��Sv/h),MP-5(��Sv/h),MP-6(��Sv/h),MP-7(��Sv/h),MP-8(��Sv/h),����,����(m/s),���J
2018/09/18,00:00,0.794,1.194,0.841,1.482,1.085,0.465,0.813,0.771,���k��,3.0,��
2018/09/18,00:10,0.796,1.195,0.841,1.482,1.082,0.466,0.815,0.771,��,3.1,��
2018/09/18,00:20,0.797,1.196,0.841,1.484,1.085,0.467,0.813,0.772,��,3.1,��
2018/09/18,00:30,0.795,1.198,0.839,1.480,1.087,0.464,0.815,0.770,��,3.1,��
2018/09/18,00:40,0.795,1.198,0.840,1.481,1.085,0.467,0.813,0.772,��,2.6,��
2018/09/18,00:50,0.794,1.197,0.840,1.482,1.086,0.467,0.814,0.771,��,3.6,��
2018/09/18,01:00,0.795,1.195,0.840,1.482,1.085,0.466,0.814,0.772,���k��,4.3,��
2018/09/18,01:10,0.797,1.197,0.841,1.481,1.085,0.465,0.815,0.771,���k��,4.6,��
2018/09/18,01:20,0.795,1.192,0.840,1.483,1.084,0.466,0.815,0.770,���k��,4.8,��
2018/09/18,01:30,0.795,1.193,0.841,1.483,1.085,0.466,0.814,0.770,���k��,4.6,��
2018/09/18,01:40,0.795,1.195,0.841,1.482,1.084,0.466,0.815,0.771,�k��,4.1,��
2018/09/18,01:50,0.795,1.194,0.842,1.482,1.084,0.466,0.815,0.772,�k�k��,5.6,��
2018/09/18,02:00,0.793,1.193,0.840,1.485,1.083,0.467,0.813,0.772,�k�k��,5.6,��
2018/09/18,02:10,0.795,1.197,0.841,1.481,1.083,0.465,0.813,0.772,�k�k��,5.5,��
2018/09/18,02:20,0.795,1.194,0.841,1.483,1.086,0.466,0.814,0.772,�k�k��,5.0,��
2018/09/18,02:30,0.793,1.195,0.842,1.482,1.084,0.465,0.814,0.771,�k��,4.9,��
2018/09/18,02:40,0.795,1.195,0.840,1.483,1.084,0.465,0.811,0.771,�k��,4.4,��
2018/09/18,02:50,0.794,1.193,0.840,1.483,1.081,0.467,0.814,0.771,�k��,2.8,��
2018/09/18,03:00,0.795,1.194,0.841,1.484,1.084,0.466,0.813,0.771,�k��,2.5,��
2018/09/18,03:10,0.794,1.195,0.841,1.480,1.083,0.466,0.813,0.772,�k,3.2,��
2018/09/18,03:20,0.792,1.196,0.841,1.484,1.084,0.466,0.815,0.771,�k�k��,4.2,��
2018/09/18,03:30,0.794,1.194,0.841,1.483,1.082,0.467,0.815,0.770,�k��,3.9,��
2018/09/18,03:40,0.796,1.196,0.841,1.483,1.085,0.467,0.814,0.771,�k��,3.5,��
2018/09/18,03:50,0.795,1.193,0.840,1.482,1.085,0.468,0.814,0.771,�k��,2.9,��
2018/09/18,04:00,0.794,1.193,0.840,1.483,1.084,0.467,0.813,0.770,���k��,2.3,��
2018/09/18,04:10,0.793,1.195,0.839,1.481,1.081,0.466,0.814,0.772,�k��,2.5,��
2018/09/18,04:20,0.795,1.194,0.839,1.482,1.085,0.466,0.814,0.772,�k��,3.5,��
2018/09/18,04:30,0.793,1.194,0.841,1.482,1.083,0.466,0.813,0.770,�k��,3.2,��
2018/09/18,04:40,0.792,1.194,0.840,1.483,1.085,0.467,0.815,0.771,�k��,3.8,��
2018/09/18,04:50,0.792,1.193,0.840,1.484,1.085,0.466,0.814,0.771,�k�k��,5.6,��
2018/09/18,05:00,0.794,1.193,0.840,1.484,1.084,0.465,0.813,0.771,�k��,4.5,��
2018/09/18,05:10,0.794,1.193,0.840,1.483,1.082,0.465,0.814,0.771,�k��,4.1,��
2018/09/18,05:20,0.794,1.195,0.839,1.484,1.082,0.467,0.815,0.772,���k��,3.1,��
2018/09/18,05:30,0.794,1.194,0.841,1.481,1.085,0.466,0.813,0.772,���k��,2.0,��
2018/09/18,05:40,0.793,1.193,0.837,1.485,1.084,0.467,0.816,0.772,�k��,3.1,��
2018/09/18,05:50,0.792,1.194,0.840,1.480,1.084,0.467,0.814,0.770,�k��,3.8,��
2018/09/18,06:00,0.793,1.193,0.841,1.485,1.082,0.466,0.814,0.771,�k��,3.6,��
2018/09/18,06:10,0.793,1.195,0.839,1.483,1.084,0.466,0.816,0.770,�k��,2.3,��
2018/09/18,06:20,0.794,1.195,0.840,1.483,1.083,0.468,0.814,0.771,��,1.1,��
2018/09/18,06:30,0.794,1.193,0.840,1.482,1.084,0.466,0.815,0.771,-,CALM,��
2018/09/18,06:40,0.796,1.196,0.841,1.482,1.084,0.466,0.814,0.771,���k��,2.2,��
2018/09/18,06:50,0.795,1.194,0.841,1.483,1.084,0.467,0.816,0.773,�k��,1.2,��
2018/09/18,07:00,0.796,1.192,0.843,1.484,1.082,0.467,0.816,0.770,�k�k��,1.5,��
2018/09/18,07:10,0.795,1.195,0.840,1.486,1.086,0.466,0.816,0.771,�k�k��,1.5,��
2018/09/18,07:20,0.795,1.196,0.840,1.484,1.081,0.464,0.815,0.772,�k,1.2,��
2018/09/18,07:30,0.793,1.193,0.840,1.485,1.081,0.463,0.815,0.772,�k,0.8,��
2018/09/18,07:40,0.793,1.192,0.841,1.481,1.085,0.464,0.813,0.771,�k,1.2,��
2018/09/18,07:50,0.796,1.191,0.841,1.486,1.086,0.465,0.812,0.772,�k�k��,1.5,��
2018/09/18,08:00,0.794,1.191,0.841,1.484,1.085,0.464,0.814,0.770,�k�k��,0.9,��
2018/09/18,08:10,0.796,1.190,0.842,1.485,1.084,0.465,0.811,0.771,��쓌,1.5,��
2018/09/18,08:20,0.794,1.191,0.840,1.483,1.085,0.464,0.813,0.771,���쓌,1.2,��
2018/09/18,08:30,0.794,1.190,0.841,1.483,1.084,0.462,0.813,0.770,���쓌,1.7,��
2018/09/18,08:40,0.794,1.191,0.842,1.485,1.087,0.464,0.813,0.772,���쓌,1.5,��
2018/09/18,08:50,0.796,1.191,0.842,1.480,1.079,0.464,0.813,0.769,�쓌,2.5,��
2018/09/18,09:00,0.793,1.191,0.841,1.486,1.084,0.465,0.813,0.768,��,1.9,��
2018/09/18,09:10,0.793,1.190,0.839,1.485,1.083,0.465,0.814,0.770,�쓌,1.7,��
2018/09/18,09:20,0.792,1.189,0.841,1.485,1.083,0.465,0.814,0.769,���쓌,0.9,��
2018/09/18,09:30,0.794,1.187,0.840,1.483,1.085,0.463,0.815,0.769,��쓌,1.7,��
2018/09/18,09:40,0.795,1.189,0.840,1.484,1.086,0.466,0.815,0.769,���쓌,2.9,��
2018/09/18,09:50,0.795,1.189,0.840,1.484,1.083,0.465,0.814,0.767,���쓌,3.3,��
2018/09/18,10:00,0.795,1.191,0.841,1.486,1.086,0.466,0.813,0.769,�쓌,3.3,��
2018/09/18,10:10,0.795,1.189,0.842,1.485,1.085,0.464,0.815,0.771,���쓌,2.0,��
2018/09/18,10:20,0.796,1.189,0.841,1.484,1.088,0.466,0.816,0.769,�쓌,3.9,��
2018/09/18,10:30,0.797,1.192,0.841,1.485,1.087,0.465,0.816,0.770,�쓌,3.5,��
2018/09/18,10:40,0.797,1.191,0.843,1.487,1.089,0.467,0.815,0.770,�쓌,4.1,��
2018/09/18,10:50,0.798,1.193,0.842,1.490,1.088,0.467,0.815,0.770,�쓌,4.8,��
2018/09/18,11:00,0.796,1.195,0.843,1.486,1.090,0.465,0.814,0.770,�쓌,6.0,��
2018/09/18,11:10,0.798,1.195,0.843,1.484,1.087,0.465,0.816,0.770,�쓌,3.7,��
2018/09/18,11:20,0.797,1.197,0.842,1.485,1.089,0.464,0.816,0.770,�쓌,4.5,��
2018/09/18,11:30,0.797,1.192,0.844,1.486,1.089,0.466,0.813,0.769,�쓌,4.2,��
2018/09/18,11:40,0.797,1.194,0.843,1.487,1.091,0.466,0.815,0.770,�쓌,3.4,��
2018/09/18,11:50,0.796,1.193,0.843,1.485,1.090,0.466,0.814,0.770,�쓌,3.7,��
2018/09/18,12:00,0.797,1.195,0.842,1.485,1.092,0.465,0.814,0.770,��쓌,4.7,��
2018/09/18,12:10,0.796,1.195,0.845,1.486,1.091,0.464,0.814,0.770,��쓌,5.1,��
2018/09/18,12:20,0.798,1.193,0.844,1.488,1.092,0.465,0.815,0.770,��쓌,4.9,��
2018/09/18,12:30,0.797,1.195,0.843,1.484,1.089,0.467,0.815,0.771,��쓌,2.9,��
2018/09/18,12:40,0.797,1.195,0.841,1.486,1.090,0.465,0.814,0.769,��,2.9,��
2018/09/18,12:50,0.796,1.194,0.845,1.486,1.092,0.466,0.814,0.771,��쐼,3.5,��
2018/09/18,13:00,0.797,1.193,0.843,1.488,1.092,0.466,0.817,0.772,��쐼,3.7,��
2018/09/18,13:10,0.796,1.195,0.845,1.486,1.093,0.467,0.815,0.769,��,4.3,��
2018/09/18,13:20,0.797,1.196,0.843,1.490,1.092,0.465,0.817,0.771,��,4.5,��
2018/09/18,13:30,0.796,1.196,0.846,1.486,1.091,0.466,0.818,0.771,��쓌,4.4,��
2018/09/18,13:40,0.797,1.195,0.845,1.489,1.091,0.466,0.815,0.769,��,4.1,��
2018/09/18,13:50,0.797,1.198,0.846,1.485,1.091,0.466,0.817,0.769,��쓌,3.6,��
2018/09/18,14:00,0.797,1.194,0.845,1.487,1.091,0.466,0.816,0.770,��쓌,3.8,��
2018/09/18,14:10,0.798,1.194,0.845,1.488,1.092,0.467,0.815,0.771,��,4.1,��
2018/09/18,14:20,0.798,1.201,0.846,1.487,1.093,0.468,0.817,0.770,��쓌,3.8,��
2018/09/18,14:30,0.798,1.198,0.845,1.487,1.091,0.467,0.817,0.771,��쓌,4.1,��
2018/09/18,14:40,0.800,1.197,0.845,1.489,1.093,0.468,0.816,0.771,��쓌,4.8,��
2018/09/18,14:50,0.801,1.199,0.846,1.486,1.096,0.467,0.815,0.770,��,5.4,��
2018/09/18,15:00,0.800,1.199,0.844,1.487,1.093,0.466,0.815,0.771,��쓌,6.7,��
2018/09/18,15:10,0.798,1.199,0.845,1.487,1.094,0.469,0.816,0.772,��,5.9,��
2018/09/18,15:20,0.799,1.201,0.847,1.489,1.094,0.467,0.818,0.773,��,4.9,��
2018/09/18,15:30,0.799,1.202,0.846,1.488,1.093,0.468,0.815,0.771,��쓌,4.6,��
2018/09/18,15:40,0.800,1.201,0.846,1.492,1.096,0.466,0.816,0.772,��쓌,4.3,��
2018/09/18,15:50,0.800,1.204,0.846,1.487,1.095,0.467,0.816,0.772,��쓌,4.8,��
2018/09/18,16:00,0.801,1.202,0.850,1.489,1.096,0.468,0.817,0.772,��쓌,3.3,��
2018/09/18,16:10,0.800,1.206,0.847,1.486,1.096,0.470,0.815,0.771,��쓌,2.8,��
2018/09/18,16:20,0.800,1.205,0.846,1.488,1.094,0.469,0.817,0.772,�쓌,2.5,��
2018/09/18,16:30,0.798,1.204,0.847,1.486,1.091,0.469,0.817,0.774,��쓌,3.9,��
2018/09/18,16:40,0.801,1.202,0.848,1.489,1.094,0.470,0.816,0.774,�쓌,2.5,��
2018/09/18,16:50,0.801,1.206,0.844,1.489,1.096,0.469,0.818,0.772,�쓌,2.9,��
2018/09/18,17:00,0.799,1.206,0.848,1.490,1.094,0.471,0.818,0.775,�쓌,2.5,��
2018/09/18,17:10,0.800,1.206,0.847,1.491,1.095,0.471,0.816,0.774,���쓌,0.9,��
2018/09/18,17:20,0.801,1.205,0.850,1.493,1.095,0.470,0.817,0.773,��,1.2,��
2018/09/18,17:30,0.801,1.209,0.850,1.489,1.095,0.471,0.820,0.775,�k,0.8,��
2018/09/18,17:40,0.801,1.203,0.850,1.491,1.094,0.471,0.819,0.773,�k,1.9,��
2018/09/18,17:50,0.799,1.207,0.849,1.492,1.093,0.469,0.817,0.773,�k�k��,2.0,��
2018/09/18,18:00,0.799,1.208,0.849,1.490,1.098,0.469,0.817,0.773,�k�k��,2.3,��
2018/09/18,18:10,0.800,1.207,0.848,1.492,1.098,0.469,0.818,0.773,�k,3.2,��
2018/09/18,18:20,0.803,1.206,0.848,1.492,1.097,0.470,0.817,0.771,�k�k��,3.2,��
2018/09/18,18:30,0.802,1.207,0.851,1.491,1.096,0.469,0.818,0.772,�k,2.8,��
2018/09/18,18:40,0.801,1.206,0.850,1.488,1.095,0.470,0.818,0.773,�k,3.1,��
2018/09/18,18:50,0.802,1.209,0.849,1.493,1.098,0.470,0.818,0.772,�k�k��,4.0,��
2018/09/18,19:00,0.800,1.208,0.850,1.489,1.099,0.470,0.818,0.774,�k�k��,3.6,��
2018/09/18,19:10,0.801,1.210,0.849,1.491,1.096,0.469,0.817,0.774,�k��,5.5,��
2018/09/18,19:20,0.802,1.205,0.848,1.494,1.096,0.468,0.818,0.774,�k��,5.8,��
2018/09/18,19:30,0.800,1.205,0.849,1.494,1.098,0.470,0.819,0.773,�k��,6.8,��
2018/09/18,19:40,0.799,1.208,0.849,1.490,1.095,0.469,0.818,0.773,�k��,7.1,��
2018/09/18,19:50,0.800,1.209,0.848,1.490,1.095,0.468,0.817,0.773,�k��,6.2,��
2018/09/18,20:00,0.801,1.205,0.849,1.494,1.095,0.467,0.819,0.774,�k��,5.6,��
2018/09/18,20:10,0.800,1.207,0.848,1.492,1.097,0.467,0.816,0.774,�k��,5.2,��
2018/09/18,20:20,0.802,1.205,0.848,1.494,1.098,0.468,0.818,0.773,�k��,6.8,��
2018/09/18,20:30,0.800,1.205,0.848,1.489,1.096,0.467,0.817,0.773,�k��,6.9,��
2018/09/18,20:40,0.802,1.208,0.848,1.493,1.094,0.468,0.817,0.774,�k��,6.0,��
2018/09/18,20:50,0.801,1.205,0.849,1.492,1.098,0.468,0.819,0.773,�k��,6.0,��
2018/09/18,21:00,0.801,1.206,0.847,1.495,1.095,0.468,0.816,0.773,�k��,5.4,��
2018/09/18,21:10,0.799,1.204,0.848,1.491,1.095,0.468,0.818,0.774,�k��,4.7,��
2018/09/18,21:20,0.801,1.207,0.850,1.490,1.096,0.469,0.815,0.773,�k��,5.3,��
2018/09/18,21:30,0.799,1.205,0.847,1.491,1.094,0.468,0.819,0.773,�k��,4.9,��
2018/09/18,21:40,0.801,1.204,0.848,1.493,1.094,0.468,0.818,0.773,�k��,5.0,��
2018/09/18,21:50,0.800,1.204,0.848,1.492,1.094,0.467,0.817,0.773,�k��,5.5,��
2018/09/18,22:00,0.799,1.205,0.846,1.493,1.095,0.468,0.817,0.772,�k��,6.6,��
2018/09/18,22:10,0.800,1.205,0.847,1.492,1.095,0.467,0.817,0.774,�k��,6.0,��
2018/09/18,22:20,0.799,1.205,0.847,1.495,1.098,0.468,0.817,0.773,�k��,6.2,��
2018/09/18,22:30,0.800,1.205,0.847,1.495,1.093,0.469,0.817,0.773,�k��,5.9,��
2018/09/18,22:40,0.799,1.204,0.847,1.493,1.096,0.467,0.816,0.772,�k��,5.5,��
2018/09/18,22:50,0.800,1.203,0.846,1.494,1.095,0.467,0.817,0.771,�k��,5.9,��
2018/09/18,23:00,0.799,1.203,0.847,1.492,1.096,0.467,0.815,0.772,�k��,6.5,��
2018/09/18,23:10,0.799,1.206,0.848,1.494,1.095,0.468,0.817,0.772,�k��,6.0,��
2018/09/18,23:20,0.798,1.205,0.850,1.495,1.095,0.469,0.817,0.773,�k��,5.4,��
2018/09/18,23:30,0.799,1.204,0.847,1.491,1.097,0.468,0.817,0.773,�k��,5.3,��
2018/09/18,23:40,0.800,1.204,0.846,1.494,1.094,0.469,0.817,0.773,�k��,5.7,��
2018/09/18,23:50,0.799,1.203,0.847,1.494,1.094,0.468,0.816,0.774,�k��,6.2,��
